• In France
  • List of Countries
  • For 7 days
  • Water Temperature
  • Satellite Maps
  • Weather Map
  • Weather Widgets
  • user-avatar
    Login

    Hourly Weather Sevan

    Today, 18 January, Thursday

    Time Temperature Precipitation Wind Pressure Humidity
    00:00 -6°C° 0.1 mm 2 mps 636 mmHg 79%
    01:00 -6°C° 0.2 mm 2 mps 635 mmHg 80%
    02:00 -6°C° 0.2 mm 3 mps 635 mmHg 80%
    03:00 -4°C° 0 mm 2 mps 635 mmHg 85%
    04:00 -4°C° 0.4 mm 2 mps 634 mmHg 86%
    05:00 -5°C° 0.4 mm 3 mps 634 mmHg 86%
    06:00 -5°C° 0.4 mm 3 mps 634 mmHg 87%
    07:00 -5°C° 0.3 mm 3 mps 634 mmHg 86%
    08:00 -5°C° 0.3 mm 3 mps 634 mmHg 86%
    09:00 -4°C° 0 mm 4 mps 634 mmHg 85%
    10:00 -3°C° 0.7 mm 4 mps 634 mmHg 85%
    11:00 -3°C° 0.7 mm 4 mps 633 mmHg 84%
    12:00 -3°C° 0.7 mm 4 mps 633 mmHg 84%
    13:00 -2°C° 0.4 mm 4 mps 633 mmHg 82%
    14:00 -2°C° 0.4 mm 5 mps 632 mmHg 81%
    15:00 -2°C° 0.4 mm 5 mps 632 mmHg 79%
    16:00 -2°C° 0.2 mm 4 mps 632 mmHg 80%
    17:00 -3°C° 0.2 mm 4 mps 632 mmHg 80%
    18:00 -3°C° 0.2 mm 4 mps 632 mmHg 81%
    19:00 -3°C° 0.1 mm 4 mps 632 mmHg 81%
    20:00 -2°C° 0.1 mm 3 mps 632 mmHg 80%
    21:00 -2°C° 0.1 mm 3 mps 632 mmHg 80%
    22:00 -4°C° 0 mm 3 mps 632 mmHg 80%
    23:00 -4°C° 0 mm 3 mps 632 mmHg 80%

    Tomorrow, 19 January, Friday

    Time Temperature Precipitation Wind Pressure Humidity
    00:00 -4°C° 0 mm 3 mps 632 mmHg 81%
    01:00 -4°C° 0 mm 3 mps 631 mmHg 81%
    02:00 -4°C° 0 mm 3 mps 631 mmHg 82%
    03:00 -4°C° 0 mm 3 mps 631 mmHg 82%
    04:00 -3°C° 0 mm 2 mps 632 mmHg 82%
    05:00 -3°C° 0 mm 2 mps 632 mmHg 83%
    06:00 -4°C° 0 mm 2 mps 632 mmHg 83%
    07:00 -3°C° 0 mm 2 mps 632 mmHg 82%
    08:00 -2°C° 0 mm 2 mps 633 mmHg 81%
    09:00 -1°C° 0 mm 2 mps 633 mmHg 80%
    10:00 +1°C° 0 mm 2 mps 633 mmHg 78%
    11:00 +2°C° 0 mm 2 mps 633 mmHg 76%
    12:00 +3°C° 0 mm 2 mps 633 mmHg 73%
    13:00 +4°C° 0 mm 2 mps 633 mmHg 73%
    14:00 +4°C° 0 mm 2 mps 633 mmHg 73%
    15:00 +4°C° 0 mm 2 mps 633 mmHg 73%
    16:00 +2°C° 0 mm 2 mps 633 mmHg 74%
    17:00 +2°C° 0 mm 1 mps 634 mmHg 75%
    18:00 +1°C° 0 mm 1 mps 634 mmHg 76%
    19:00 +1°C° 0 mm 1 mps 634 mmHg 75%
    20:00 -1°C° 0 mm 2 mps 634 mmHg 74%
    21:00 -1°C° 0 mm 2 mps 634 mmHg 74%
    22:00 -1°C° 0 mm 2 mps 635 mmHg 74%
    23:00 -2°C° 0 mm 2 mps 635 mmHg 74%

    Day after tomorrow, 20 January, Saturday

    Time Temperature Precipitation Wind Pressure Humidity
    00:00 -2°C° 0 mm 2 mps 635 mmHg 74%
    01:00 -2°C° 0 mm 2 mps 635 mmHg 76%
    02:00 -2°C° 0 mm 2 mps 636 mmHg 77%
    03:00 -3°C° 0 mm 2 mps 636 mmHg 78%
    04:00 -3°C° 0.1 mm 2 mps 636 mmHg 79%
    05:00 -3°C° 0.1 mm 2 mps 637 mmHg 80%
    06:00 -3°C° 0.1 mm 2 mps 637 mmHg 81%
    07:00 -2°C° 0 mm 2 mps 637 mmHg 79%
    08:00 -2°C° 0 mm 2 mps 638 mmHg 77%
    09:00 -1°C° 0 mm 2 mps 639 mmHg 75%
    10:00 +1°C° 0 mm 2 mps 639 mmHg 73%
    11:00 +2°C° 0 mm 2 mps 639 mmHg 71%
    12:00 +3°C° 0 mm 2 mps 639 mmHg 69%
    13:00 +4°C° 0 mm 1 mps 639 mmHg 69%
    14:00 +4°C° 0 mm 1 mps 639 mmHg 69%
    15:00 +4°C° 0 mm 1 mps 639 mmHg 69%
    16:00 +2°C° 0 mm 1 mps 639 mmHg 70%
    17:00 0°C° 0 mm 1 mps 639 mmHg 72%
    18:00 -1°C° 0 mm 1 mps 640 mmHg 73%
    19:00 -1°C° 0 mm 1 mps 640 mmHg 72%
    20:00 -2°C° 0 mm 1 mps 640 mmHg 70%
    21:00 -2°C° 0 mm 1 mps 641 mmHg 69%
    22:00 -2°C° 0 mm 1 mps 641 mmHg 69%
    23:00 -3°C° 0 mm 1 mps 641 mmHg 69%

    21 January, Sunday

    Time Temperature Precipitation Wind Pressure Humidity
    00:00 -3°C° 0 mm 1 mps 641 mmHg 70%
    01:00 -3°C° 0 mm 1 mps 641 mmHg 70%
    02:00 -3°C° 0 mm 1 mps 641 mmHg 70%
    03:00 -5°C° 0 mm 2 mps 641 mmHg 70%
    04:00 -5°C° 0 mm 2 mps 641 mmHg 70%
    05:00 -5°C° 0 mm 2 mps 641 mmHg 70%
    06:00 -5°C° 0 mm 2 mps 641 mmHg 69%
    07:00 -4°C° 0 mm 2 mps 641 mmHg 68%
    08:00 -4°C° 0 mm 2 mps 642 mmHg 66%
    09:00 -3°C° 0 mm 2 mps 642 mmHg 64%
    10:00 -1°C° 0 mm 2 mps 642 mmHg 63%
    11:00 +1°C° 0 mm 2 mps 642 mmHg 62%
    12:00 +2°C° 0 mm 2 mps 642 mmHg 61%
    13:00 +2°C° 0 mm 2 mps 641 mmHg 61%
    14:00 +2°C° 0 mm 2 mps 641 mmHg 61%
    15:00 +3°C° 0 mm 2 mps 641 mmHg 61%
    16:00 +1°C° 0 mm 2 mps 641 mmHg 60%
    17:00 -1°C° 0 mm 2 mps 640 mmHg 60%
    18:00 -3°C° 0 mm 2 mps 640 mmHg 59%
    19:00 -3°C° 0 mm 2 mps 640 mmHg 58%
    20:00 -3°C° 0 mm 2 mps 640 mmHg 57%
    21:00 -3°C° 0 mm 2 mps 640 mmHg 56%
    22:00 -3°C° 0 mm 2 mps 640 mmHg 56%
    23:00 -3°C° 0 mm 2 mps 640 mmHg 57%

    22 January, Monday

    Time Temperature Precipitation Wind Pressure Humidity
    00:00 -3°C° 0 mm 2 mps 640 mmHg 57%
    01:00 -3°C° 0 mm 2 mps 639 mmHg 57%
    02:00 -3°C° 0 mm 2 mps 639 mmHg 57%
    03:00 -3°C° 0 mm 2 mps 639 mmHg 57%
    04:00 -3°C° 0 mm 2 mps 639 mmHg 57%
    05:00 -2°C° 0 mm 2 mps 638 mmHg 56%
    06:00 -2°C° 0 mm 2 mps 638 mmHg 56%
    07:00 -2°C° 0 mm 2 mps 638 mmHg 56%
    08:00 -1°C° 0 mm 2 mps 638 mmHg 56%
    09:00 +1°C° 0 mm 2 mps 638 mmHg 57%
    10:00 +2°C° 0 mm 2 mps 638 mmHg 56%
    11:00 +3°C° 0 mm 2 mps 638 mmHg 55%
    12:00 +4°C° 0 mm 2 mps 638 mmHg 54%
    13:00 +4°C° 0 mm 2 mps 637 mmHg 55%
    14:00 +4°C° 0 mm 2 mps 637 mmHg 55%
    15:00 +4°C° 0 mm 2 mps 636 mmHg 56%
    16:00 +2°C° 0 mm 2 mps 636 mmHg 55%
    17:00 +1°C° 0 mm 2 mps 636 mmHg 54%
    18:00 -2°C° 0 mm 2 mps 636 mmHg 53%
    19:00 -2°C° 0 mm 2 mps 636 mmHg 53%
    20:00 -3°C° 0 mm 2 mps 636 mmHg 53%
    21:00 -3°C° 0 mm 2 mps 636 mmHg 53%
    22:00 -3°C° 0 mm 2 mps 636 mmHg 55%
    23:00 -3°C° 0 mm 2 mps 636 mmHg 56%

    23 January, Tuesday

    Time Temperature Precipitation Wind Pressure Humidity
    00:00 -3°C° 0 mm 2 mps 636 mmHg 58%
    01:00 -4°C° 0 mm 2 mps 636 mmHg 58%
    02:00 -4°C° 0 mm 2 mps 636 mmHg 58%
    03:00 -4°C° 0 mm 2 mps 636 mmHg 58%
    04:00 -4°C° 0 mm 2 mps 635 mmHg 59%
    05:00 -4°C° 0 mm 2 mps 635 mmHg 59%
    06:00 -4°C° 0 mm 2 mps 635 mmHg 59%
    07:00 -4°C° 0 mm 2 mps 635 mmHg 59%
    08:00 -3°C° 0 mm 2 mps 636 mmHg 59%
    09:00 -2°C° 0 mm 2 mps 636 mmHg 60%
    10:00 -1°C° 0 mm 2 mps 636 mmHg 58%
    11:00 +1°C° 0 mm 2 mps 636 mmHg 57%
    12:00 +1°C° 0 mm 3 mps 636 mmHg 55%
    13:00 +2°C° 0 mm 3 mps 636 mmHg 56%
    14:00 +3°C° 0 mm 2 mps 635 mmHg 57%
    15:00 +3°C° 0 mm 2 mps 635 mmHg 57%
    16:00 +2°C° 0 mm 2 mps 635 mmHg 58%
    17:00 +1°C° 0 mm 2 mps 635 mmHg 58%
    18:00 -1°C° 0 mm 2 mps 635 mmHg 59%
    19:00 -1°C° 0 mm 2 mps 635 mmHg 60%
    20:00 -1°C° 0 mm 2 mps 635 mmHg 60%
    21:00 -1°C° 0 mm 2 mps 635 mmHg 61%
    22:00 -1°C° 0 mm 2 mps 635 mmHg 62%
    23:00 -1°C° 0 mm 2 mps 636 mmHg 64%
    Show more